Regional Weather Roundup
Issued by NWS

Home | Current Version | Previous Version | Text Only | Print | Product List | Glossary On
Versions: 1 2 3 4 5 6 7 8 9 10 11 12 13 14 15 16 17 18 19 20 21 22 23 24 25 26 27 28 29 30 31 32 33 34 35 36 37 38 39 40 41 42 43 44 45 46 47 48 49 50
000
ASUS45 KABQ 251801
RWRNM
NEW MEXICO REGIONAL WEATHER ROUNDUP
NATIONAL WEATHER SERVICE ALBUQUERQUE NM
1100 AM MST SUN FEB 25 2018

NOTE: "FAIR" MEANS FEW OR NO CLOUDS BELOW 12,000 FEET AGL WITH NO
       SIGNIFICANT WEATHER OR OBSTRUCTIONS TO VISION.

      THIS PRODUCT IS RELEASED AS TWO VERSIONS.  ONE VERSION NEAR
      THE TOP OF THE HOUR CONTAINING PRELIMINARY DATA FROM ALBUQUERQUE
      AND OTHER STATIONS.  A FINAL VERSION WITH ADDITIONAL DATA IS
      ISSUED ABOUT 10 MINUTES AFTER THE HOUR.

NMZ501-503-504-510>518-251900-
NORTHWEST PLATEAU/NORTHCENTRAL MOUNTAINS

CITY           SKY/WX    TMP DP  RH WIND       PRES   REMARKS
FARMINGTON     FAIR      34  12  40 W15G22    30.13S WCI  24
6HR MIN TEMP:  23; 6HR MAX TEMP:  35; 6HR PCP: TRACE;

LOS ALAMOS     FAIR      30   3  31 NW14G25   30.05R WCI  19
SANTA FE       FAIR      35  14  42 NW13G21   30.05R WCI  26
6HR MIN TEMP:  17; 6HR MAX TEMP:  36;

TAOS           FAIR      32   4  30 NW23G29   30.03R WCI  19
ANGEL FIRE     CLOUDY    22   3  45 NW16G23   29.96R WCI   8

$$
NMZ402-403-502-505>509-251900-
WESTCENTRAL MOUNTAINS/SOUTHWEST MOUNTAINS

CITY           SKY/WX    TMP DP  RH WIND       PRES   REMARKS
GALLUP         FAIR      31  13  47 W7        30.15R WCI  24
6HR MIN TEMP:  23; 6HR MAX TEMP:  31;

GRANTS         FAIR      34   7  32 NW21G28   30.15R WCI  22
SILVER CITY    FAIR      45   4  19 NW14G20   30.13S

$$
NMZ407-409-411-412-251900-
SOUTHERN DESERTS

CITY           SKY/WX    TMP DP  RH WIND       PRES   REMARKS
DEMING         FAIR      51   6  16 W9        30.14S
6HR MIN TEMP:  25; 6HR MAX TEMP:  52;

LAS CRUCES     FAIR      52   5  14 W14       30.13F
HOLLOMAN AFB   FAIR      55   6  14 W8        30.14S
ALAMOGORDO     FAIR      50   5  16 W9        30.13R
T OR C         FAIR      48   1  14 NW15G23   30.13S
6HR MIN TEMP:  26; 6HR MAX TEMP:  48;


$$
NMZ519>523-251900-
CENTRAL VALLEYS/CENTRAL HIGHLANDS

CITY           SKY/WX    TMP DP  RH WIND       PRES   REMARKS
ALBUQUERQUE    FAIR      37  18  46 NW13G22   30.13R WCI  29
6HR MIN TEMP:  24; 6HR MAX TEMP:  37;

MORIARTY ARPT  FAIR      37  15  41 W21G31    30.09R WCI  26
6HR MIN TEMP:  10; 6HR MAX TEMP:  38;

CLINES CORNERS FAIR      32  12  43 NW33G53   30.02R WCI  17
6HR MIN TEMP:  15; 6HR MAX TEMP:  33;

BELEN          FAIR      42   8  25 NW15      30.15R
6HR MIN TEMP:  18; 6HR MAX TEMP:  42;

SOCORRO        PTSUNNY   45   5  19 N17G25    30.16R
6HR MIN TEMP:  22; 6HR MAX TEMP:  45;


$$
NMZ524>526-539-540-251900-
SOUTHCENTRAL MOUNTAINS

CITY           SKY/WX    TMP DP  RH WIND       PRES   REMARKS
RUIDOSO        FAIR      39   0  19 NW21G29   30.07S WCI  29

$$
NMZ527>531-251900-
NORTHEAST HIGHLANDS/NORTHEAST PLAINS

CITY           SKY/WX    TMP DP  RH WIND       PRES   REMARKS
LAS VEGAS      PTSUNNY   34   8  33 N18       29.99R WCI  23
6HR MIN TEMP:  20; 6HR MAX TEMP:  35;

RATON          FAIR      37  -2  19 VRB7      29.94R WCI  32
6HR MIN TEMP:  11; 6HR MAX TEMP:  40;

CLAYTON        CLOUDY    42   5  21 N15G21    29.94R
6HR MIN TEMP:  17; 6HR MAX TEMP:  45;


$$
NMZ532>537-251900-
EASTCENTRAL PLAINS

CITY           SKY/WX    TMP DP  RH WIND       PRES   REMARKS
SANTA ROSA     FAIR      44  12  27 W26G36    30.02S
TUCUMCARI      FAIR      51   9  18 W24G35    29.96F
6HR MIN TEMP:  24; 6HR MAX TEMP:  52;

CANNON AFB     FAIR      49   5  16 W24G30    30.02F
6HR MIN TEMP:  25; 6HR MAX TEMP:  49;

CLOVIS AIRPORT FAIR      51   5  15 W24G39    30.02F

$$
NMZ028-029-538-251900-
SOUTHEAST PLAINS

CITY           SKY/WX    TMP DP  RH WIND       PRES   REMARKS
ROSWELL        FAIR      53  11  18 NE10      30.05R
6HR MIN TEMP:  19; 6HR MAX TEMP:  53;

ARTESIA        FAIR      61   7  11 W16G26    30.02S
CARLSBAD       FAIR      58   6  12 VRB3      30.04S
6HR MIN TEMP:  26; 6HR MAX TEMP:  58;

HOBBS          SUNNY     61  -6   6 W21G35    30.04S


$$




USA.gov is the U.S. government's official web portal to all federal, state and local government web resources and services.